x

South Nomad (46036) Wave Buoy

4:00am - Tue 27th Sep 2016 All times are UTC.

  • Sig Wave height 7.5ft
  • Peak Period 10s
  • Wind
    18mph, 20mph gusts
  • Sea Temp 61°f
  • Air Temp 59°f
  • Sea Pressure 1025.8mb

More Historic Weather Station data

Upgrade to MSW Pro to gain access to the past 30 days of data for over 8000 Wavebouys and Weather Stations around the globe.

Join Pro

Comparision Forecast

View Surf forecast
   
Tue 09/27 4:00am 7.5ft 10s 18 20 mph 1025.8mb 61f 59f
3:00am 8ft 10s 18 20 mph 1025.2mb 61f 59f
2:00am 7.5ft 9s 18 22 mph 1024.6mb 61f 59f
1:00am 8ft 8s 20 22 mph 1024.4mb 61f 59f
12:00am 8.5ft 10s 20 25 mph 1024.1mb 62f 60f
Mon 09/26 11:00pm 9ft 8s 20 22 mph 1023.6mb 62f 60f
10:00pm 9ft 8s 20 22 mph 1023.1mb 62f 60f
9:00pm 9.5ft 8s 18 22 mph 1022.7mb 62f 60f
8:00pm 10ft 10s 20 22 mph 1022.2mb 62f 60f
7:00pm 8ft 10s 18 22 mph 1021.4mb 61f 60f
6:00pm 8.5ft 9s 18 22 mph 1020.7mb 61f 59f
5:00pm 9ft 11s 18 22 mph 1019.8mb 61f 59f
4:00pm 9ft 10s 22 27 mph 1018.5mb 61f 59f
3:00pm 9ft 10s 22 27 mph 1017.5mb 61f 59f
2:00pm 8ft 11s 22 29 mph 1015.9mb 61f 59f
1:00pm 9ft 11s 20 27 mph 1015.2mb 61f 59f
12:00pm 9ft 11s 16 22 mph 1015.2mb 61f 61f
11:00am 9ft 11s 11 16 mph 1014.7mb 61f 60f
10:00am 10ft 8s 18 22 mph 1014.7mb 61f 62f
9:00am 11ft 10s 18 20 mph 1015mb 61f 62f
8:00am 12ft 9s 16 20 mph 1015.2mb 61f 62f
7:00am 13ft 10s 16 18 mph 1015.5mb 61f 62f
6:00am 12ft 10s 16 20 mph 1015.5mb 61f 62f
5:00am 12ft 10s 16 18 mph 1015.6mb 62f 62f
4:00am 13ft 8s 22 29 mph 1014.6mb 62f 63f
3:00am 13ft 9s 27 31 mph 1014.7mb 62f 63f
2:00am 11.5ft 10s 29 36 mph 1014.6mb 62f 64f
1:00am 11.5ft 9s 29 36 mph 1014.5mb 62f 64f
12:00am 11ft 10s 27 36 mph 1015.6mb 62f 64f
Sun 09/25 11:00pm 10ft 10s 27 36 mph 1016.2mb 62f 63f
10:00pm 10.5ft 8s 27 31 mph 1016.8mb 61f 63f
9:00pm 10ft 10s 27 34 mph 1017.5mb 61f 64f
8:00pm 9ft 17s 25 29 mph 1017.8mb 61f 63f
7:00pm 10ft 10s 22 29 mph 1018.6mb 61f 63f
6:00pm 9ft 9s 22 29 mph 1018.5mb 61f 63f
5:00pm 9.5ft 10s 22 27 mph 1018.4mb 62f 63f
4:00pm 9.5ft 8s 22 27 mph 1018.2mb 61f 62f
3:00pm 10ft 9s 22 27 mph 1018.4mb 62f 63f
2:00pm 10ft 9s 20 25 mph 1018.4mb 62f 63f
1:00pm 10ft 9s 22 27 mph 1018mb 62f 63f
12:00pm 10ft 9s 20 25 mph 1017.8mb 62f 63f
11:00am 9.5ft 10s 22 27 mph 1017.9mb 62f 63f
10:00am 10.5ft 10s 22 29 mph 1017.9mb 62f 64f
9:00am 10ft 10s 25 31 mph 1017.8mb 62f 64f
8:00am 10ft 10s 20 25 mph 1017.8mb 61f 62f
7:00am 11ft 11s 11 13 mph 1018.3mb 61f 61f
6:00am 11ft 11s 11 16 mph 1018.2mb 61f 61f
5:00am 10.5ft 10s 13 18 mph 1018mb 61f 61f
4:00am 11.5ft 11s 16 18 mph 1017.1mb 62f 61f
3:00am 11ft 10s 18 20 mph 1016.1mb 62f 61f
2:00am 13ft 10s 22 27 mph 1015.6mb 62f 62f
1:00am 13ft 10s 22 31 mph 1014.3mb 62f 62f
12:00am 13.5ft 9s 27 34 mph 1013.1mb 62f 62f
Sat 09/24 11:00pm 13ft 10s 29 38 mph 1012.1mb 62f 63f
10:00pm 12.5ft 10s 29 36 mph 1011.2mb 62f 63f
9:00pm 12ft 9s 27 36 mph 1010.7mb 62f 63f
8:00pm 12ft 10s 27 34 mph 1010.5mb 62f 64f
7:00pm 11ft 8s 27 31 mph 1010.3mb 62f 64f
6:00pm 11ft 8s 22 27 mph 1010.8mb 62f 64f
4:00pm 10ft 6s 27 34 mph 1011.3mb 62f 60f
3:00pm 9.5ft 6s 31 38 mph 1013mb 62f 58f
1:00pm 8.5ft 9s 22 31 mph 1016.1mb 62f 58f
12:00pm 9ft 10s 27 31 mph 1017.4mb 62f 58f
11:00am 8ft 10s 22 31 mph 1018mb 62f 61f
10:00am 8ft 10s 20 25 mph 1019.4mb 62f 61f
9:00am 8ft 10s 18 25 mph 1020.3mb 62f 61f
8:00am 8.5ft 10s 16 20 mph 1021mb 62f 60f
7:00am 8ft 10s 16 18 mph 1021.2mb 62f 61f
6:00am 8.5ft 11s 13 18 mph 1021mb 62f 61f
5:00am 9ft 11s 13 18 mph 1021.1mb 62f 61f
4:00am 9ft 11s 11 13 mph 1021.5mb 62f 61f
3:00am 9ft 11s 9 11 mph 1020.9mb 62f 61f
2:00am 8.5ft 11s 9 11 mph 1021.3mb 62f 61f
1:00am 9ft 12s 9 11 mph 1021.2mb 62f 61f
12:00am 9.5ft 10s 11 13 mph 1021mb 62f 61f
Fri 09/23 11:00pm 9.5ft 12s 13 16 mph 1020.9mb 62f 61f
10:00pm 9ft 12s 13 18 mph 1020mb 62f 61f
9:00pm 9.5ft 11s 13 18 mph 1019.9mb 62f 61f
8:00pm 9.5ft 12s 16 18 mph 1019.5mb 62f 61f
7:00pm 11ft 12s 16 20 mph 1019.2mb 62f 61f
6:00pm 10ft 11s 16 20 mph 1018.5mb 62f 61f
5:00pm 11ft 11s 16 20 mph 1017.5mb 62f 60f
4:00pm 11ft 11s 16 20 mph 1016.7mb 62f 60f
3:00pm 11.5ft 12s 18 20 mph 1015.9mb 62f 60f
2:00pm 12ft 12s 18 22 mph 1015.2mb 62f 60f
1:00pm 12ft 12s 18 22 mph 1014.7mb 62f 60f
12:00pm 13ft 12s 20 25 mph 1013.8mb 62f 60f
11:00am 13ft 11s 18 22 mph 1013.2mb 62f 60f
10:00am 13ft 12s 20 27 mph 1012.7mb 62f 60f
9:00am 13.5ft 12s 20 25 mph 1012.1mb 62f 60f
8:00am 13ft 12s 20 25 mph 1011.1mb 62f 60f
7:00am 13ft 11s 20 22 mph 1010.3mb 62f 61f
6:00am 13.5ft 12s 18 22 mph 1009.3mb 62f 60f